FENGYUN 1C DEB, 31410

Orbit data source: Space-Track

FENGYUN 1C DEB, 31410 is space debris in SSO originally from a launch on Mon, 10 May 1999 UTC launched from the Taiyaun Space Center, China (TSC). Fengyun 1C debris stems from the Chinese weather satellite Fengyun-1C, which was intentionally destroyed by a Chinese anti-satellite missile in 2007. This event dramatically increased the amount of space debris, with thousands of trackable fragments posing hazards to satellites and human spaceflight. The Fengyun 1C debris cloud has become a focal point in discussions about space sustainability and the need for international regulations to prevent the creation of new debris.

Loading next visibility...
Identifier
31410, 1999-025BSW
Orbit
SSO
Country
Flag of CNCN / PRC
Related business
Manufacturer
Unknown
Mission
Spacecraft
Bus & Motor
Unknown
Mass
Unknown
Launch date (UTC)
1999-05-10 (27 years ago)
Launch vehicle
Unknown
Launch site
Taiyaun Space Center, China (TSC)
Object type
Payload
Rocket body
Debris
Shape & HBR
Unknown shape, 0.1 m
Radar Cross Section
Small (<0.1 m²)

Expand to show TLE details & history
Last TLE update: 6 days ago

TLE from 6 days ago
0 FENGYUN 1C DEB
1 31410U 99025BSW 26144.97253203  .00002049  00000-0  55039-3 0  9992
2 31410  98.8530 318.3464 0110121 157.7891 353.4925 14.45726874  1052
Epoch: 2026-05-24T23:20Z
TLE epoch observation values (Epoch: 2026-05-24T23:20:26.767Z)
Latitude
28.53503°
Longitude
-89.5002°
Altitude
665.299 km
Speed
7.568 km/s
True Right ascension
09h 32m 42s
True Declination
28° 23' 21"
Sunlit
Object was in daylight at epoch
Visualization orbit readout
Latitude
Unknown
Longitude
Unknown
Altitude
Unknown
Speed
Unknown
Apparent Right ascension
Unknown
Apparent Declination
Unknown
Sunlit
N/A
Visualization observer readout
Local Sidereal Time
19:48:50
Azimuth
Unknown
Elevation
Unknown
Doppler factor
Unknown
Orbital elements
Apogee altitude
815.12 km
Perigee altitude
658.42 km
Semi-major axis
7,114.907 km
Eccentricity
0.01101
Inclination
98.853°
RAAN
318.3464°
Arg. of periapsis
157.7891°
True anomaly
353.3475°
Mean anomaly
353.4925°
Eccentric anomaly
353.4202°
Mean motion
3.61651 °/min
Orbital period
99.54 mins
BSTAR
0.00055039
Loading maneuver chart data...
Computing Atmospheric mass density...
Loading historical data...
Loading historical data...
Loading historical data...
Loading historical data...
Loading historical data...
Loading historical data...
Loading historical data...

Documentation

Showing up to 5 results
|